Location: Mapua
(41.2500°S, 173.1000°E)
Time: 13:29:05
(UTC+12:00)

Tiangong 2 - Visible Passes

Search period start: 20 April 2018 00:00
Search period end: 30 April 2018 00:00
Orbit: 382 x 387 km, 42.8° (Epoch: 19 April)

Date Brightness Start Highest point End Pass type
(mag) Time Alt. Az. Time Alt. Az. Time Alt. Az.
20 Apr 2.5 05:39:13 24° NNW 05:39:13 24° NNW 05:41:53 10° NNE visible
28 Apr 3.6 19:05:47 10° N 19:06:25 12° NNE 19:06:25 12° NNE visible
29 Apr 3.5 19:41:07 10° NW 19:42:10 18° NNW 19:42:10 18° NNW visible
